User: anonymous   Login
Location: Unspecified
(0.0000°N, 0.0000°E)
Time: 01:50:28
(UTC+00:00)
Language:

STARLINK-31426 - Orbit

View from above orbital plane
View from above orbital plane
View from above satellite
View from above satellite

Ground track
Ground track

The orbit is defined by the following mean orbital elements,

1 59249U          26145.51826036 +.00000000 +00000-0 -43657-4 0 00001
2 59249  43.0049  69.8419 0001370 264.4728  95.5967 15.27587042    04
Epoch (UTC): 25 May 2026 12:26:17
Eccentricity: 0.0001370
inclination: 43.0049°
perigee height: 482 km
apogee height: 484 km
right ascension of ascending node: 69.8419°
argument of perigee: 264.4728°
revolutions per day: 15.27587042
mean anomaly at epoch: 95.5967°

The dashed part of the orbit path shows where the satellite is in the earth's shadow,  

DLR